Regional Weather Roundup
Issued by NWS

Home | Current Version | Previous Version | Graphics & Text | Print | Product List | Glossary On
Versions: 1 2 3 4 5 6 7 8 9 10 11 12 13 14 15 16 17 18 19 20 21 22 23 24 25 26 27 28 29 30 31 32 33 34 35 36 37 38 39 40 41 42 43 44 45 46 47 48 49 50
000
ASUS43 KMKX 271400
RWRWI

WISCONSIN REGIONAL WEATHER ROUNDUP
NATIONAL WEATHER SERVICE MILWAUKEE/SULLIVAN WI
800 AM CST SAT DEC 27 2014

NOTE: "FAIR" INDICATES FEW OR NO CLOUDS BELOW 12,000 FEET WITH NO
SIGNIFICANT WEATHER AND/OR OBSTRUCTIONS TO VISIBILITY.

WIZ001-002-006>008-014>016-023>028-271500-
NORTHWEST WISCONSIN

CITY           SKY/WX    TMP DP  RH WIND       PRES   REMARKS
SUPERIOR ARPT  CLOUDY    23  18  81 NW8       30.05F WCI  14
ASHLAND        LGT SNOW  26  25  96 N10       30.00R FOG     WCI  16
HAYWARD        LGT SNOW  25  22  88 VRB6      29.96F VSB 3/4 WCI  18
SIREN          LGT SNOW  22  21  93 N6        30.01F WCI  15
CUMBERLAND     LGT SNOW  23  21  93 N16       29.95F WCI  10
RICE LAKE      LGT SNOW  26  23  91 N13       29.97S WCI  15
CHETEK         LGT SNOW  26  25  96 NW10G16   29.94S VSB 3/4 WCI  16
LADYSMITH      LGT SNOW  28  27  94 N15       29.92F VSB 1   WCI  17
EAU CLAIRE     LGT SNOW  28  25  88 N10       29.90S FOG     WCI  19
MENOMONIE      LGT SNOW  28  26  91 NW15      29.93S WCI  16
NEW RICHMOND   LGT SNOW  23  22  96 N15       30.00R WCI  10
OSCEOLA        LGT SNOW  23  23 100 NW8G17    30.04S WCI  14
$$

WIZ003>005-009-010-017-018-271500-
NORTH CENTRAL WISCONSIN

CITY           SKY/WX    TMP DP  RH WIND       PRES   REMARKS
MANITOWISH WTR LGT SNOW  27  27 100 N6        29.87F WCI  20
ARBOR VITAE    LGT SNOW  31  30  93 N7        29.85F VSB 1   WCI  25
WOODRUFF       LGT SNOW  31  30  93 N7        29.85F VSB 1   WCI  25
RHINELANDER    LGT SNOW  28  27  96 N6        29.84F VSB 3/4 WCI  22
EAGLE RIVER    SNOW      28  28 100 NE8       29.85S VSB 1/2 WCI  20
LAND O LAKES   LGT SNOW  29  28  96 N7        29.88R VSB 1   WCI  21
PHILLIPS       LGT SNOW  28  26  95 N10       29.87F WCI  18
TOMAHAWK       LGT SNOW  29  28  94 CALM      29.84F
MEDFORD        LGT SNOW  29  28  96 N6        29.83S WCI  23
MERRILL        LGT SNOW  31  31 100 CALM      29.83F
$$

WIZ029-030-035-036-043>047-271500-
CENTRAL WISCONSIN

CITY           SKY/WX    TMP DP  RH WIND       PRES   REMARKS
WAUSAU         LGT SNOW  32  31  96 N5        29.80F FOG     WCI  27
MOSINEE        NOT AVBL
MARSHFIELD     LGT SNOW  33  31  92 N5        29.81F FOG     WCI  29
STEVENS POINT  MIX PCPN  31  31 100 CALM      29.83F
WAUPACA        LGT RAIN  35  34  96 NW5       29.83S WCI  31
WAUTOMA        NOT AVBL
WISC RAPIDS    LGT RAIN  33  30  88 CALM      29.83S FOG
CAMP DOUGLAS   CLOUDY    32  32 100 NW3       29.83R FOG
$$

WIZ011>013-019>022-031-037>040-048>050-271500-
NORTHEAST WISCONSIN

CITY           SKY/WX    TMP DP  RH WIND       PRES   REMARKS
ANTIGO         LGT SNOW  30  30 100 NE3       29.81F VSB 3/4
SHAWANO        LGT RAIN  34  33  96 NE5       29.82F WCI  30
OCONTO         CLOUDY    34  34 100 NE8       29.81F WCI  27
STURGEON BAY   CLOUDY    39  36  87 E8        29.82F VSB 1/2 WCI  34
GREEN BAY      LGT RAIN  35  34  96 N5        29.82F VSB 3/4 WCI  31
MANITOWOC      LGT RAIN  39  39 100 S10       29.83F FOG     WCI  32
APPLETON       NOT AVBL
CLINTONVILLE   RAIN      32  32 100 N3        29.82F
OSHKOSH        LGT RAIN  40  38  93 S9        29.81F FOG     WCI  34
$$

WIZ032>034-041-042-053>061-271500-
SOUTHWEST WISCONSIN

CITY           SKY/WX    TMP DP  RH WIND       PRES   REMARKS
LA CROSSE      CLOUDY    33  30  88 NW16      29.90R WCI  23
SPARTA         CLOUDY    33  33 100 W5        29.86R FOG     WCI  28
VIROQUA        CLOUDY    33  33 100 W14       29.84R VSB 1/4 WCI  23
BOSCOBEL       CLOUDY    38  34  85 SW12G22   29.91R WCI  30
PRAIRIE DU CHI CLOUDY    36  32  87 W10G16    29.90R WCI  28
PLATTEVILLE    CLOUDY    37  36  95 SW14      29.91R WCI  28
$$

WIZ056-057-062-063-064-067-068-271500-
SOUTH CENTRAL WISCONSIN

CITY           SKY/WX    TMP DP  RH WIND       PRES   REMARKS
REEDSBURG      CLOUDY    33  33 100 CALM      29.84S FOG
BARABOO/DELLS  CLOUDY    33  32  98 CALM      29.83S FOG
LONE ROCK      CLOUDY    39  35  86 W6        29.87R WCI  35
MINERAL POINT  CLOUDY    39  37  93 SW17      29.86S WCI  30
MADISON        LGT RAIN  45  43  93 VRB5      29.85R
MIDDLETON      CLOUDY    46  45  94 SW16      29.86R
WATERTOWN      CLOUDY    46  46 100 S14       29.84F FOG
MONROE         CLOUDY    45  45 100 SW16      29.86R
JANESVILLE     DRIZZLE   48  46  93 SW15      29.87F
$$

WIZ051-052-058>065-066-070>072-271500-
SOUTHEAST WISCONSIN

CITY           SKY/WX    TMP DP  RH WIND       PRES   REMARKS
MILWAUKEE      CLOUDY    46  43  89 S15G26    29.88F
WAUKESHA       CLOUDY    45  43  93 S7        29.87F FOG
MILWAUKEE/TIMM NOT AVBL
RACINE         CLOUDY    47  44  90 S12       29.91F
BURLINGTON     CLOUDY    44  44  99 SW15      29.89F FOG
KENOSHA        CLOUDY    47  45  93 SW15G23   29.90F
FOND DU LAC    HVY RAIN  45  42  89 S14G23    29.81F FOG
SHEBOYGAN      CLOUDY    40  39  97 S8        29.83F FOG     WCI  34
WEST BEND      CLOUDY    43  41  93 S9        29.83F FOG
JUNEAU         CLOUDY    44  43  97 S15       29.85F FOG
$$

LSZ147-162-271500-
LAKE SUPERIOR

STATION/POSITION TIME  TEMP    WIND        PRES    WAVE
                       AIR SEA DIR/SP/G            HT/PER
                 (UTC) (F)     (DEG/KT/KT) (MB)    (FT/S)
DEVILS ISLAND    1300   28      10/ 13/ 14 1017.6R
PORT WING        1300   27     340/ 11/ 13 1017.3
SAXON HARBOR     1300   31      30/ 16/ 19 1014.9F
$$

LMZ867-665-643>646-271500-
LAKE MICHIGAN

STATION/POSITION TIME  TEMP    WIND        PRES    WAVE
                       AIR SEA DIR/SP/G            HT/PER
                 (UTC) (F)     (DEG/KT/KT) (MB)    (FT/S)
CHAMBERS ISLAND  1300   34      30/ 10/ 14 1011.9F
NORTHPORT PIER   1300   35      60/  9/ 11 1011.9F
SISTER BAY       1313          120/  8/ 14   N/A
ALGOMA LAKESHORE 1215           80/  9/ 10   N/A
KEWAUNEE LAKESHO 1300   38     160/  3/  5 1010.5F
SHEBOYGAN LAKESH 1300   39 39  180/ 13/ 14 1011.8F
PORT WASHINGTON  1300   40     190/  5/  8 1012.2F
MILWAUKEE LAKESH 1300   45     200/ 10/ 12   N/A
KENOSHA   LAKESH 1300   46     200/  9/ 13 1013.5R
$$

TC  - TEMPERATURE IN CELSIUS
VSB - VISIBILITY IN STATUTE MILES
WCI - WIND CHILL INDEX
HX  - HEAT INDEX



USA.gov is the U.S. government's official web portal to all federal, state and local government web resources and services.